• In Portugal
  • List of Countries
  • For 7 days
  • Water Temperature
  • Satellite Maps
  • Weather Map
  • Weather Widgets
  • user-avatar
    Login

    Hourly Weather Lalitpur

    Today, 20 July, Friday

    Time Temperature Precipitation Wind Pressure Humidity
    00:00 +25°C° 0 mm 1 mps 646 mmHg 85%
    01:00 +24°C° 1 mm 1 mps 646 mmHg 85%
    02:00 +24°C° 1 mm 1 mps 646 mmHg 85%
    03:00 +24°C° 1 mm 1 mps 645 mmHg 85%
    04:00 +24°C° 0.9 mm 1 mps 645 mmHg 85%
    05:00 +24°C° 0.9 mm 1 mps 645 mmHg 85%
    06:00 +24°C° 0.9 mm 1 mps 645 mmHg 84%
    07:00 +26°C° 0.5 mm 1 mps 646 mmHg 79%
    08:00 +27°C° 0.5 mm 1 mps 646 mmHg 73%
    09:00 +29°C° 0.5 mm 1 mps 647 mmHg 67%
    10:00 +30°C° 1 mm 1 mps 647 mmHg 64%
    11:00 +31°C° 1 mm 2 mps 647 mmHg 60%
    12:00 +32°C° 0 mm 2 mps 648 mmHg 56%
    13:00 +32°C° 1 mm 2 mps 647 mmHg 56%
    14:00 +32°C° 1 mm 2 mps 646 mmHg 57%
    15:00 +32°C° 1 mm 2 mps 646 mmHg 58%
    16:00 +31°C° 1.4 mm 2 mps 646 mmHg 62%
    17:00 +30°C° 1.4 mm 1 mps 645 mmHg 67%
    18:00 +28°C° 0 mm 1 mps 645 mmHg 75%
    19:00 +27°C° 1.7 mm 1 mps 645 mmHg 78%
    20:00 +27°C° 1.7 mm 1 mps 645 mmHg 80%
    21:00 +26°C° 1.7 mm 1 mps 645 mmHg 83%
    22:00 +25°C° 1.5 mm 1 mps 645 mmHg 82%
    23:00 +25°C° 1.5 mm 1 mps 646 mmHg 81%

    Tomorrow, 21 July, Saturday

    Time Temperature Precipitation Wind Pressure Humidity
    00:00 +25°C° 1.5 mm 1 mps 646 mmHg 81%
    01:00 +25°C° 1.7 mm 1 mps 646 mmHg 81%
    02:00 +24°C° 1.7 mm 1 mps 645 mmHg 82%
    03:00 +24°C° 1.7 mm 1 mps 645 mmHg 82%
    04:00 +24°C° 1.6 mm 1 mps 645 mmHg 82%
    05:00 +24°C° 1.6 mm 1 mps 645 mmHg 81%
    06:00 +24°C° 1.6 mm 1 mps 645 mmHg 81%
    07:00 +25°C° 0.8 mm 1 mps 646 mmHg 79%
    08:00 +26°C° 0.8 mm 1 mps 646 mmHg 77%
    09:00 +27°C° 0.8 mm 1 mps 647 mmHg 74%
    10:00 +27°C° 0.5 mm 2 mps 647 mmHg 73%
    11:00 +28°C° 0.5 mm 2 mps 647 mmHg 71%
    12:00 +28°C° 0.5 mm 2 mps 647 mmHg 70%
    13:00 +28°C° 1.1 mm 2 mps 646 mmHg 71%
    14:00 +28°C° 1.1 mm 2 mps 646 mmHg 72%
    15:00 +29°C° 1.1 mm 2 mps 645 mmHg 72%
    16:00 +28°C° 1.6 mm 2 mps 645 mmHg 76%
    17:00 +27°C° 1.6 mm 2 mps 645 mmHg 79%
    18:00 +26°C° 1.6 mm 1 mps 644 mmHg 83%
    19:00 +26°C° 1.2 mm 1 mps 645 mmHg 84%
    20:00 +25°C° 1.2 mm 1 mps 645 mmHg 86%
    21:00 +23°C° 1.2 mm 0 mps 645 mmHg 88%
    22:00 +22°C° 1.6 mm 0 mps 646 mmHg 88%
    23:00 +24°C° 1.6 mm 1 mps 646 mmHg 88%

    Day after tomorrow, 22 July, Sunday

    Time Temperature Precipitation Wind Pressure Humidity
    00:00 +24°C° 1.6 mm 1 mps 646 mmHg 87%
    01:00 +24°C° 1.6 mm 1 mps 646 mmHg 87%
    02:00 +24°C° 1.6 mm 1 mps 645 mmHg 87%
    03:00 +24°C° 1.6 mm 1 mps 645 mmHg 87%
    04:00 +23°C° 0.7 mm 1 mps 645 mmHg 86%
    05:00 +23°C° 0.7 mm 1 mps 645 mmHg 85%
    06:00 +23°C° 0.7 mm 1 mps 645 mmHg 84%
    07:00 +24°C° 0.3 mm 1 mps 646 mmHg 82%
    08:00 +25°C° 0.3 mm 1 mps 646 mmHg 79%
    09:00 +25°C° 0.3 mm 1 mps 647 mmHg 77%
    10:00 +26°C° 0.1 mm 1 mps 647 mmHg 73%
    11:00 +27°C° 0.1 mm 1 mps 647 mmHg 69%
    12:00 +28°C° 0.1 mm 2 mps 647 mmHg 66%
    13:00 +29°C° 0.1 mm 2 mps 646 mmHg 65%
    14:00 +29°C° 0.1 mm 2 mps 646 mmHg 65%
    15:00 +29°C° 0.1 mm 2 mps 646 mmHg 64%
    16:00 +29°C° 0.3 mm 2 mps 645 mmHg 68%
    17:00 +28°C° 0.3 mm 2 mps 645 mmHg 73%
    18:00 +27°C° 0.3 mm 1 mps 645 mmHg 77%
    19:00 +26°C° 0.7 mm 1 mps 645 mmHg 81%
    20:00 +25°C° 0.7 mm 1 mps 645 mmHg 85%
    21:00 +24°C° 0.7 mm 1 mps 645 mmHg 89%
    22:00 +24°C° 0.8 mm 1 mps 645 mmHg 89%
    23:00 +24°C° 0.8 mm 1 mps 645 mmHg 90%

    23 July, Monday

    Time Temperature Precipitation Wind Pressure Humidity
    00:00 +24°C° 0.8 mm 1 mps 645 mmHg 90%
    01:00 +24°C° 0.9 mm 1 mps 645 mmHg 89%
    02:00 +23°C° 0.9 mm 1 mps 645 mmHg 88%
    03:00 +23°C° 0.9 mm 1 mps 645 mmHg 87%
    04:00 +21°C° 0.3 mm 0 mps 645 mmHg 87%
    05:00 +21°C° 0.3 mm 0 mps 645 mmHg 86%
    06:00 +21°C° 0.3 mm 0 mps 645 mmHg 86%
    07:00 +25°C° 0.1 mm 1 mps 645 mmHg 81%
    08:00 +26°C° 0.1 mm 2 mps 646 mmHg 77%
    09:00 +27°C° 0.1 mm 2 mps 646 mmHg 72%
    10:00 +28°C° 0.5 mm 2 mps 647 mmHg 72%
    11:00 +28°C° 0.5 mm 3 mps 647 mmHg 71%
    12:00 +29°C° 0.5 mm 3 mps 647 mmHg 71%
    13:00 +28°C° 0.8 mm 2 mps 646 mmHg 73%
    14:00 +28°C° 0.8 mm 2 mps 645 mmHg 75%
    15:00 +27°C° 0.8 mm 2 mps 644 mmHg 77%
    16:00 +27°C° 0.4 mm 2 mps 644 mmHg 77%
    17:00 +27°C° 0.4 mm 2 mps 644 mmHg 77%
    18:00 +27°C° 0.4 mm 2 mps 644 mmHg 77%
    19:00 +26°C° 0.4 mm 1 mps 645 mmHg 81%
    20:00 +25°C° 0.4 mm 1 mps 645 mmHg 85%
    21:00 +24°C° 0.4 mm 1 mps 645 mmHg 89%
    22:00 +24°C° 0.4 mm 1 mps 646 mmHg 90%
    23:00 +24°C° 0.4 mm 1 mps 646 mmHg 90%

    24 July, Tuesday

    Time Temperature Precipitation Wind Pressure Humidity
    00:00 +23°C° 0.4 mm 1 mps 646 mmHg 91%
    01:00 +21°C° 0.2 mm 0 mps 646 mmHg 91%
    02:00 +21°C° 0.2 mm 0 mps 645 mmHg 91%
    03:00 +21°C° 0.2 mm 0 mps 645 mmHg 91%
    04:00 +21°C° 0.1 mm 0 mps 645 mmHg 91%
    05:00 +21°C° 0.1 mm 0 mps 645 mmHg 91%
    06:00 +21°C° 0.1 mm 0 mps 645 mmHg 92%
    07:00 +24°C° 0.1 mm 1 mps 646 mmHg 87%
    08:00 +25°C° 0.1 mm 1 mps 646 mmHg 82%
    09:00 +27°C° 0.1 mm 2 mps 647 mmHg 77%
    10:00 +27°C° 0.6 mm 2 mps 647 mmHg 74%
    11:00 +28°C° 0.6 mm 2 mps 647 mmHg 72%
    12:00 +29°C° 0.6 mm 2 mps 647 mmHg 69%
    13:00 +29°C° 1.4 mm 2 mps 646 mmHg 71%
    14:00 +28°C° 1.4 mm 2 mps 646 mmHg 73%
    15:00 +28°C° 1.4 mm 2 mps 645 mmHg 75%
    16:00 +28°C° 1.9 mm 2 mps 645 mmHg 78%
    17:00 +27°C° 1.9 mm 2 mps 645 mmHg 81%
    18:00 +26°C° 1.9 mm 2 mps 645 mmHg 85%
    19:00 +25°C° 1.8 mm 1 mps 645 mmHg 87%
    20:00 +25°C° 1.8 mm 1 mps 646 mmHg 90%
    21:00 +24°C° 1.8 mm 1 mps 646 mmHg 92%
    22:00 +24°C° 2.1 mm 1 mps 646 mmHg 92%
    23:00 +24°C° 2.1 mm 1 mps 646 mmHg 92%

    25 July, Wednesday

    Time Temperature Precipitation Wind Pressure Humidity
    00:00 +23°C° 2.1 mm 1 mps 646 mmHg 93%
    01:00 +23°C° 1.5 mm 1 mps 646 mmHg 92%
    02:00 +23°C° 1.5 mm 1 mps 646 mmHg 92%
    03:00 +23°C° 1.5 mm 1 mps 645 mmHg 91%
    04:00 +23°C° 1.2 mm 1 mps 645 mmHg 91%
    05:00 +23°C° 1.2 mm 1 mps 645 mmHg 91%
    06:00 +23°C° 1.2 mm 1 mps 645 mmHg 91%
    07:00 +23°C° 1 mm 1 mps 646 mmHg 89%
    08:00 +24°C° 1 mm 1 mps 646 mmHg 87%
    09:00 +25°C° 1 mm 1 mps 646 mmHg 85%
    10:00 +26°C° 0.6 mm 2 mps 646 mmHg 81%
    11:00 +27°C° 0.6 mm 2 mps 646 mmHg 77%
    12:00 +28°C° 0.6 mm 2 mps 646 mmHg 74%
    13:00 +28°C° 1.6 mm 2 mps 646 mmHg 75%
    14:00 +28°C° 1.6 mm 2 mps 645 mmHg 75%
    15:00 +28°C° 1.6 mm 2 mps 645 mmHg 76%
    16:00 +27°C° 2.3 mm 2 mps 644 mmHg 80%
    17:00 +26°C° 2.3 mm 2 mps 644 mmHg 84%
    18:00 +26°C° 2.3 mm 1 mps 644 mmHg 87%
    19:00 +25°C° 2.7 mm 1 mps 644 mmHg 89%
    20:00 +25°C° 2.7 mm 1 mps 645 mmHg 91%
    21:00 +22°C° 2.7 mm 0 mps 645 mmHg 92%
    22:00 +22°C° 1.8 mm 0 mps 645 mmHg 92%
    23:00 +22°C° 1.8 mm 0 mps 645 mmHg 93%
    Show more